Find Local Weather

World > North America > United States > Wisconsin

Elton, Wisconsin Regional Weather

Lat: 45.15N, Lon: 88.84W
Wx Zone: WIZ019
Warning FLW WEATHER ALERT - (More Info. Click Here) Warning
Feedback
Expires:201808181100;;248791
ASUS43 KMKX 181021
RWRWI 

WISCONSIN REGIONAL WEATHER ROUNDUP
NATIONAL WEATHER SERVICE MILWAUKEE/SULLIVAN WI
500 AM CDT SAT AUG 18 2018

NOTE: "FAIR" INDICATES FEW OR NO CLOUDS BELOW 12,000 FEET WITH NO
SIGNIFICANT WEATHER AND/OR OBSTRUCTIONS TO VISIBILITY.


WIZ011>013-019>022-031-037>040-048>050-181100-
NORTHEAST WISCONSIN
  
CITY           SKY/WX    TMP DP  RH WIND       PRES   REMARKS
ANTIGO         CLOUDY    54  54 100 CALM      30.11S                  
SHAWANO        FAIR      64  60  87 NE7       30.09S                  
OCONTO         FAIR      59  57  92 N3        30.08R                  
STURGEON BAY   CLOUDY    64  61  90 N14       30.07R                  
GREEN BAY      FAIR      62  57  83 N12       30.08R                  
MANITOWOC      FAIR      62  60  93 N6        30.06R                  
APPLETON       FAIR      61  55  82 N6        30.07R                  
CLINTONVILLE   MOCLDY    59  56  88 CALM      30.09S                  
OSHKOSH        FAIR      67  63  87 NE10      30.07R                  
$$
 

SKY/WX - Weather  TMP - Temperature  DP - Dewpoint  RH - Relative Humidity
WIND - Wind Direction/Speed PRES - Barometric Pressure